Weather in Salkove

Ukraine / Kirovohrad Region     48°15′43″N   29°58′57″E
temp.,
°C
wind,
m/s
gust,
m/s
humid.,
%
clouds,
%
prec.,
mm/h
press.,
hPa
HPBL,
m
18 april, sun
sun1800:00+5nw1183100 0.0 102012
03:00+4nnw11887 0.0 101910
06:00+3nw12905 0.0 101910
09:00+8nw1174100 0.0 1019320
12:00+12w225592 0.0 10181144
15:00+13wnw224874 0.0 10171558
18:00+13nw115089 0.0 10171420
21:00+11ne0058100 0.0 101710
19 april, mon
mon1900:00+10ese0061100 0.0 101710
03:00+9w2267100 0.0 101726
06:00+8w118088 0.0 101615
09:00+11w2271100 0.1 1017310
12:00+13e125586 0.2 10151357
15:00+14ese3352100 0.6 10141391
18:00+12ne4567100 0.7 1014459
21:00+11ene5975100 0.9 1013426
20 april, tue
tue2000:00+10ne4979100 0.1 1011378
03:00+8nne51083100 0.1 1010284
06:00+8nne61281100 0.0 1008425
09:00+9nne71376100 0.0 1007684
12:00+11nne81159100 0.0 10051517
15:00+13n91148100 0.0 10051997
18:00+11nnw91161100 0.1 10061457
21:00+8nw6126770 0.1 1009581
21 april, wed
wed2100:00+6nw5107997 0.0 1010372
03:00+5wnw41083100 0.0 1011339
06:00+4wnw398299 0.0 1013302
09:00+8wnw4766100 0.0 1015637
12:00+11wnw4554100 0.0 10151217
15:00+14w3548100 0.1 10151760
18:00+14w345232 0.1 10151295
21:00+10se227092 0.3 101710
22 april, thu
thu2200:00+10s237378 0.0 101846
03:00+8s348488 0.0 101981
06:00+7s229136 0.0 101918
09:00+11sse33739 0.0 1020372
12:00+16sse445226 0.1 10201407
15:00+18s444465 0.4 10192173
18:00+15se2357100 0.0 101968
21:00+13sse346693 0.0 102083